Location: Marengo
(51.4813°N, 109.7825°W)
Time: 23:19:39
(UTC+00:00)

Envisat - Pass Details

Date: 26 January 2022
Orbit: 764 x 765 km, 98.2° (Epoch: 22 May)

Event Time Altitude Azimuth Distance (km) Brightness Sun altitude
Rises 14:15:36 0° 4° (N) 3,244 6.1 -7.9°
Reaches altitude 10° 14:18:46 10° 343° (NNW) 2,313 5.1 -7.4°
Maximum altitude 14:21:42 16° 307° (NW) 1,943 4.5 -7.0°
Drops below altitude 10° 14:24:38 10° 272° (W) 2,306 4.9 -6.6°
Sets 14:27:48 0° 251° (WSW) 3,228 5.8 -6.1°
